Location: Kawakawa
(35.3830°S, 174.0670°E)
Time: 02:20:23
(UTC+12:00)

Cosmos 2360 Rocket - Pass Details

Date: 24 January 2019
Orbit: 832 x 847 km, 71.0° (Epoch: 20 April)

Event Time Altitude Azimuth Distance (km) Brightness Sun altitude
Exits shadow 21:00:06 - 48° (NE) 2,928 4.4 -4.9°
Reaches altitude 10° 21:03:39 10° 80° (E) 2,481 4.0 -5.6°
Maximum altitude 21:04:03 10° 84° (E) 2,478 4.1 -5.7°
Drops below altitude 10° 21:04:26 10° 88° (E) 2,484 4.1 -5.7°
Sets 21:09:56 0° 131° (SE) 3,434 5.2 -6.7°
